DW3735 Weather Reports


Display with metric or nautical units.
time (UTC)temp
F
wind
direction
speed
MPH
gust
MPH
rain 1hr
in
rain 24hr
in
rain mn
in
humidity
%
barometer
mb
20260507142016 41 248 1.0 4.0 0.00 0.00 0.00 70 1007.7
20260507141016 41 315 2.0 6.0 0.00 0.00 0.00 69 1007.7
20260507140017 41 270 1.0 3.0 0.00 0.00 0.00 71 1007.6
20260507135017 40 338 2.0 6.0 0.00 0.00 0.00 72 1007.5
20260507134016 40 338 1.0 4.0 0.00 0.00 0.00 73 1007.5
20260507133016 39 315 1.0 5.0 0.00 0.00 0.00 72 1007.5
20260507132016 39 338 1.0 4.0 0.00 0.00 0.00 72 1007.5
20260507131016 40 338 3.0 6.0 0.00 0.00 0.00 69 1007.4
20260507130017 41 338 1.0 5.0 0.00 0.00 0.00 67 1007.4
20260507125016 41 293 3.0 8.0 0.00 0.00 0.00 64 1007.2
20260507124036 42 338 1.0 4.0 0.00 0.00 0.00 62 1007.0
20260507123017 43 270 2.0 4.0 0.00 0.00 0.00 58 1006.8
20260507122016 43 0.0 2.0 0.00 0.00 0.00 56 1006.7
20260507121016 43 315 1.0 5.0 0.00 0.00 0.00 55 1006.7
20260507120016 43 270 2.0 9.0 0.00 0.00 0.00 54 1006.6
20260507115017 43 315 2.0 6.0 0.00 0.00 0.00 54 1006.6
20260507114016 43 0.0 2.0 0.00 0.00 0.00 54 1006.5
20260507113016 44 293 2.0 8.0 0.00 0.00 0.00 53 1006.4
20260507112056 43 248 2.0 4.0 0.00 0.00 0.00 53 1006.3
20260507111017 43 315 1.0 3.0 0.00 0.00 0.00 54 1006.2
20260507110057 43 293 2.0 5.0 0.00 0.00 0.00 54 1006.2
20260507105016 43 270 1.0 3.0 0.00 0.00 0.00 55 1006.0
20260507104016 43 270 1.0 3.0 0.00 0.00 0.00 55 1005.9
20260507103037 43 293 1.0 4.0 0.00 0.00 0.00 55 1005.9
20260507102057 43 270 2.0 3.0 0.00 0.00 0.00 56 1005.7
20260507101016 43 270 1.0 3.0 0.00 0.00 0.00 56 1005.7
20260507100016 43 270 1.0 3.0 0.00 0.00 0.00 56 1005.5
20260507095016 43 270 1.0 3.0 0.00 0.00 0.00 56 1005.3
20260507094016 44 270 1.0 2.0 0.00 0.00 0.00 55 1005.4
20260507093016 44 270 2.0 4.0 0.00 0.00 0.00 55 1005.3
20260507092016 44 270 2.0 3.0 0.00 0.00 0.00 55 1005.3
20260507091037 44 270 1.0 3.0 0.00 0.00 0.00 54 1005.3
20260507090037 44 270 1.0 3.0 0.00 0.00 0.00 54 1005.3
20260507085016 45 270 2.0 3.0 0.00 0.00 0.00 53 1005.3
20260507084016 45 270 1.0 3.0 0.00 0.00 0.00 53 1005.4
20260507083016 45 270 1.0 3.0 0.00 0.00 0.00 53 1005.4
20260507082017 45 270 1.0 2.0 0.00 0.00 0.00 51 1005.3
20260507081016 46 270 1.0 3.0 0.00 0.00 0.00 50 1005.5
20260507080017 46 270 1.0 3.0 0.00 0.00 0.00 50 1005.6
20260507075017 46 0.0 2.0 0.00 0.00 0.00 50 1005.7
20260507074016 46 248 1.0 2.0 0.00 0.00 0.00 49 1005.7
20260507073016 46 293 1.0 3.0 0.00 0.00 0.00 50 1005.7
20260507072016 46 270 1.0 3.0 0.00 0.00 0.00 48 1005.8
20260507071037 47 0.0 2.0 0.00 0.00 0.00 50 1005.7
20260507070017 47 248 1.0 3.0 0.00 0.00 0.00 49 1005.8
20260507065037 47 270 1.0 3.0 0.00 0.00 0.00 48 1005.8
20260507064016 47 293 1.0 3.0 0.00 0.00 0.00 48 1005.9
20260507063017 48 270 1.0 3.0 0.00 0.00 0.00 48 1006.0
20260507062017 48 270 1.0 4.0 0.00 0.00 0.00 47 1006.0
20260507061017 48 315 1.0 3.0 0.00 0.00 0.00 48 1006.1
20260507060017 48 270 1.0 3.0 0.00 0.00 0.00 47 1006.0
20260507055037 48 270 1.0 3.0 0.00 0.00 0.00 48 1006.1
20260507054016 48 0.0 1.0 0.00 0.00 0.00 50 1006.1
20260507053017 48 0.0 0.0 0.00 0.00 0.00 52 1006.1
20260507052016 48 0.0 0.0 0.00 0.00 0.00 50 1006.1
20260507051017 49 0.0 0.0 0.00 0.00 0.00 49 1006.2
20260507050057 49 0.0 0.0 0.00 0.00 0.00 51 1006.2
20260507045016 49 0.0 0.0 0.00 0.00 0.00 52 1006.3
20260507044037 49 0.0 0.0 0.00 0.00 0.00 54 1006.4
20260507043036 49 0.0 0.0 0.00 0.00 0.00 54 1006.5
20260507042017 49 0.0 0.0 0.00 0.00 0.00 52 1006.6
20260507041016 49 0.0 0.0 0.00 0.00 0.00 53 1006.6
20260507040016 48 0.0 0.0 0.00 0.00 0.00 52 1006.6
20260507035037 49 0.0 0.0 0.00 0.00 0.00 56 1006.8
20260507034017 49 0.0 0.0 0.00 0.00 0.00 52 1006.7
20260507033017 49 0.0 0.0 0.00 0.00 0.00 54 1006.7
20260507032017 49 0.0 0.0 0.00 0.00 0.00 54 1006.8
20260507031017 49 0.0 0.0 0.00 0.00 0.00 54 1006.8
20260507030017 49 0.0 0.0 0.00 0.00 0.00 54 1006.7
20260507025017 49 0.0 0.0 0.00 0.00 0.00 54 1006.6
20260507024017 49 0.0 0.0 0.00 0.00 0.00 52 1006.7
20260507023037 50 0.0 0.0 0.00 0.00 0.00 52 1006.7
20260507022017 50 0.0 0.0 0.00 0.00 0.00 51 1006.7
20260507021017 50 0.0 0.0 0.00 0.00 0.00 50 1006.6
20260507020017 51 0.0 0.0 0.00 0.00 0.00 50 1006.7
20260507015017 51 0.0 0.0 0.00 0.00 0.00 53 1006.7
20260507014017 51 0.0 0.0 0.00 0.00 0.00 52 1006.7
20260507013017 51 0.0 0.0 0.00 0.00 0.00 47 1006.8
20260507012017 52 0.0 0.0 0.00 0.00 0.00 47 1006.8
20260507011017 52 0.0 0.0 0.00 0.00 0.00 47 1006.9
20260507010017 52 0.0 0.0 0.00 0.00 0.00 46 1006.7
20260507005057 52 0.0 0.0 0.00 0.00 0.00 45 1006.6
20260507004017 53 0.0 0.0 0.00 0.00 0.00 44 1006.6
20260507003017 53 0.0 0.0 0.00 0.00 0.00 43 1006.4
20260507002017 53 0.0 0.0 0.00 0.00 0.00 43 1006.3
20260507001037 53 0.0 0.0 0.00 0.00 0.00 43 1006.2
20260507000017 54 0.0 0.0 0.00 0.00 0.00 43 1006.1
20260506235017 54 0.0 0.0 0.00 0.00 0.00 42 1006.0
20260506234056 54 0.0 0.0 0.00 0.00 0.00 41 1005.8
20260506233017 54 0.0 2.0 0.00 0.00 0.00 40 1005.8
20260506232017 55 0.0 2.0 0.00 0.00 0.00 40 1005.8
20260506231017 55 0.0 2.0 0.00 0.00 0.00 40 1005.7
20260506230037 55 0.0 2.0 0.00 0.00 0.00 40 1005.7
20260506225017 55 0.0 2.0 0.00 0.00 0.00 41 1005.7
20260506224017 55 0.0 1.0 0.00 0.00 0.00 39 1005.9
20260506223017 55 0.0 2.0 0.00 0.00 0.00 39 1005.8
20260506222017 56 293 1.0 3.0 0.00 0.00 0.00 38 1005.9
20260506221037 56 293 1.0 4.0 0.00 0.00 0.00 37 1005.9
20260506220017 56 270 1.0 3.0 0.00 0.00 0.00 36 1005.8
20260506215017 56 270 1.0 4.0 0.00 0.00 0.00 37 1005.9
20260506214017 56 270 1.0 3.0 0.00 0.00 0.00 36 1005.9
20260506213017 56 270 1.0 3.0 0.00 0.00 0.00 37 1005.7
20260506212017 56 293 1.0 3.0 0.00 0.00 0.00 35 1005.6
20260506211016 56 293 1.0 4.0 0.00 0.00 0.00 35 1005.5
20260506210016 56 270 2.0 4.0 0.00 0.00 0.00 35 1005.5
20260506205017 56 270 1.0 2.0 0.00 0.00 0.00 35 1005.6
20260506204017 57 0.0 2.0 0.00 0.00 0.00 35 1005.6
20260506203017 57 293 1.0 3.0 0.00 0.00 0.00 36 1005.7
20260506202017 56 0.0 0.0 0.00 0.00 0.00 37 1005.6
20260506201017 56 0.0 2.0 0.00 0.00 0.00 37 1005.6
20260506200017 56 0.0 0.0 0.00 0.00 0.00 37 1005.7
20260506195017 56 270 1.0 2.0 0.00 0.00 0.00 37 1005.7
20260506194017 56 270 1.0 6.0 0.00 0.00 0.00 38 1005.8
20260506193017 56 270 1.0 3.0 0.00 0.00 0.00 38 1005.8
20260506192057 56 270 3.0 8.0 0.00 0.00 0.00 34 1005.9
20260506191037 57 0.0 2.0 0.00 0.00 0.00 37 1006.0
20260506190018 57 0.0 2.0 0.00 0.00 0.00 37 1006.0
20260506185037 57 0.0 2.0 0.00 0.00 0.00 39 1006.0
20260506184017 56 0.0 0.0 0.00 0.00 0.00 37 1006.0
20260506183017 56 0.0 2.0 0.00 0.00 0.00 36 1006.0
20260506182017 56 225 1.0 3.0 0.00 0.00 0.00 39 1006.1
20260506181017 56 0.0 1.0 0.00 0.00 0.00 34 1006.2
20260506180037 56 270 3.0 8.0 0.00 0.00 0.00 35 1006.4
20260506175017 56 180 2.0 4.0 0.00 0.00 0.00 35 1006.5
20260506174017 56 293 3.0 6.0 0.00 0.00 0.00 36 1006.4
20260506173017 56 270 1.0 4.0 0.00 0.00 0.00 38 1006.6
20260506172017 56 225 1.0 2.0 0.00 0.00 0.00 37 1006.6
20260506171017 55 248 1.0 3.0 0.00 0.00 0.00 40 1006.6
20260506170057 55 0.0 1.0 0.00 0.00 0.00 41 1006.6
20260506165017 54 0.0 2.0 0.00 0.00 0.00 40 1006.6
20260506164017 54 338 1.0 4.0 0.00 0.00 0.00 38 1006.7
20260506163016 54 0.0 4.0 0.00 0.00 0.00 42 1007.0
20260506162057 54 180 1.0 4.0 0.00 0.00 0.00 40 1007.0
20260506161017 54 0.0 2.0 0.00 0.00 0.00 43 1007.1
20260506160017 53 180 1.0 2.0 0.00 0.02 0.00 43 1007.1
20260506155017 53 0.0 1.0 0.00 0.16 0.00 41 1007.2
20260506154057 53 0.0 0.0 0.00 0.20 0.00 46 1007.5
20260506153017 52 0.0 0.0 0.00 0.20 0.00 47 1007.8
20260506152037 52 0.0 1.0 0.00 0.21 0.00 46 1007.8
20260506151017 51 0.0 0.0 0.00 0.23 0.00 47 1007.9
20260506150016 50 0.0 0.0 0.00 0.23 0.00 51 1008.1
20260506145017 50 0.0 0.0 0.00 0.23 0.00 49 1008.1
20260506144037 49 0.0 0.0 0.00 0.23 0.00 52 1008.1
20260506143017 48 0.0 0.0 0.00 0.23 0.00 51 1007.9